Temp
-4 -4 -4 -4 -5 -5 -5 -5 -4 -4 -4 -4 -4 -4 -3 -4 -5 -5 -5 -5 -6 -6 -7 -7 -7 -7 -7 -7 -7 -8 -8 -8 -8 -8 -8 -8 -8 -8 -8 -8 -8 -8 -8 -8 -8 -8 -8 -8 -8
-4 -4 -4 -5 -5 -5 -5 -4 -5 -5 -4 -4 -4 -4 -4 -4 -5 -5 -6 -6 -6 -7 -7 -7 -7 -7 -7 -7 -8 -8 -8 -8 -9 -8 -8 -8 -8 -8 -8 -8 -8 -8 -8 -8 -8 -8 -8 -8 -8
-4 -4 -5 -5 -5 -5 -5 -5 -5 -5 -5 -5 -4 -4 -5 -5 -5 -6 -6 -6 -7 -7 -7 -7 -7 -7 -7 -8 -8 -8 -8 -8 -8 -8 -8 -8 -8 -8 -8 -8 -8 -8 -8 -9 -9 -9 -9 -8 -8
-4 -4 -4 -5 -5 -5 -5 -5 -5 -5 -5 -5 -4 -4 -5 -5 -6 -6 -6 -6 -7 -7 -7 -7 -7 -7 -7 -8 -8 -8 -8 -8 -8 -8 -8 -8 -8 -8 -8 -8 -8 -7 -7 -8 -8 -9 -9 -9 -8
-4 -4 -4 -4 -5 -5 -5 -5 -5 -5 -5 -5 -5 -5 -5 -5 -6 -6 -6 -6 -7 -7 -7 -7 -7 -7 -7 -8 -7 -7 -8 -8 -7 -7 -8 -8 -8 -8 -8 -7 -7 -7 -7 -7 -8 -9 -9 -9 -9
-4 -4 -4 -4 -5 -5 -5 -5 -5 -5 -5 -5 -5 -4 -5 -5 -5 -6 -6 -6 -6 -7 -7 -7 -7 -7 -7 -7 -7 -7 -7 -7 -7 -7 -7 -7 -7 -8 -8 -7 -7 -7 -8 -8 -9 -9 -9 -9 -9
-4 -4 -5 -5 -4 -5 -5 -5 -5 -5 -5 -5 -4 -4 -4 -5 -5 -5 -6 -6 -6 -7 -7 -7 -7 -7 -7 -7 -7 -7 -7 -7 -7 -7 -7 -7 -7 -8 -8 -7 -7 -8 -8 -8 -9 -9 -9 -9 -9
-5 -5 -5 -5 -5 -5 -5 -5 -5 -5 -5 -5 -4 -4 -4 -5 -5 -6 -6 -6 -6 -6 -6 -7 -6 -6 -7 -7 -7 -7 -7 -7 -7 -7 -7 -7 -7 -8 -8 -8 -8 -7 -7 -8 -8 -9 -9 -9 -9
-5 -4 -5 -5 -5 -5 -5 -4 -5 -5 -5 -5 -5 -5 -4 -4 -5 -6 -6 -6 -6 -6 -6 -6 -6 -6 -7 -7 -7 -7 -7 -7 -7 -7 -7 -8 -8 -8 -8 -8 -8 -8 -8 -8 -8 -8 -8 -8 -9
-6 -5 -5 -5 -5 -4 -5 -5 -5 -5 -5 -5 -5 -5 -5 -4 -5 -6 -6 -6 -6 -7 -7 -6 -6 -6 -6 -7 -7 -7 -7 -7 -7 -7 -7 -8 -8 -8 -8 -8 -8 -8 -8 -8 -8 -8 -8 -8 -8
-6 -5 -5 -5 -5 -5 -4 -4 -4 -5 -5 -5 -5 -4 -4 -5 -5 -5 -6 -6 -6 -6 -7 -6 -6 -6 -6 -6 -7 -7 -7 -7 -7 -7 -8 -8 -8 -8 -8 -8 -8 -8 -8 -8 -8 -8 -8 -8 -8
-6 -5 -5 -5 -5 -4 -5 -5 -5 -5 -5 -5 -4 -5 -4 -5 -5 -6 -6 -6 -6 -6 -6 -6 -6 -6 -6 -6 -6 -7 -7 -7 -7 -8 -8 -8 -8 -8 -8 -8 -8 -8 -8 -8 -8 -8 -8 -8 -8
-6 -5 -5 -5 -5 -5 -6 -5 -6 -5 -5 -5 -5 -5 -5 -5 -6 -5 -6 -6 -6 -6 -6 -6 -6 -6 -6 -6 -6 -7 -7 -7 -7 -8 -8 -8 -8 -8 -8 -8 -8 -8 -8 -8 -7 -7 -8 -8 -8
-6 -5 -5 -5 -5 -6 -5 -5 -6 -5 -4 -5 -6 -5 -5 -6 -6 -6 -6 -6 -6 -6 -6 -7 -6 -6 -6 -6 -6 -7 -7 -7 -7 -7 -7 -8 -8 -8 -8 -8 -8 -7 -8 -7 -7 -7 -7 -7 -8
-5 -4 -5 -5 -5 -6 -6 -6 -7 -5 -4 -4 -5 -6 -6 -6 -6 -6 -6 -6 -6 -6 -6 -6 -6 -6 -6 -6 -6 -7 -7 -7 -7 -7 -7 -7 -7 -7 -7 -8 -7 -7 -7 -7 -7 -7 -7 -7 -7
-5 -4 -4 -5 -4 -5 -6 -6 -6 -5 -4 -5 -5 -6 -6 -7 -6 -6 -5 -5 -6 -6 -6 -6 -6 -6 -6 -6 -6 -6 -6 -7 -7 -7 -7 -7 -7 -7 -7 -7 -7 -6 -6 -7 -7 -7 -8 -7 -7
-4 -4 -4 -5 -4 -4 -6 -6 -6 -6 -5 -5 -5 -5 -6 -6 -6 -6 -6 -6 -6 -6 -6 -6 -6 -6 -6 -6 -6 -6 -6 -6 -6 -6 -6 -7 -7 -7 -7 -7 -6 -6 -6 -6 -6 -7 -7 -8 -7
-5 -4 -4 -5 -4 -5 -6 -7 -7 -6 -5 -5 -5 -5 -5 -6 -7 -7 -6 -6 -6 -5 -6 -5 -5 -5 -5 -6 -6 -6 -6 -6 -6 -6 -6 -6 -6 -6 -6 -6 -6 -6 -6 -5 -5 -6 -7 -7 -7
-6 -5 -5 -6 -5 -5 -6 -7 -7 -6 -5 -6 -6 -5 -6 -6 -6 -6 -6 -6 -6 -5 -5 -5 -5 -5 -5 -6 -6 -6 -6 -6 -6 -6 -6 -6 -6 -6 -6 -6 -6 -5 -5 -5 -5 -5 -6 -7 -7
-6 -6 -6 -6 -5 -5 -6 -7 -7 -6 -6 -7 -6 -5 -5 -5 -6 -6 -6 -6 -5 -5 -5 -5 -5 -5 -5 -6 -6 -6 -6 -6 -6 -6 -6 -6 -6 -6 -6 -6 -6 -6 -6 -6 -5 -6 -6 -6 -6
-6 -6 -6 -7 -6 -6 -6 -7 -7 -6 -6 -6 -5 -5 -4 -5 -5 -5 -6 -6 -5 -5 -5 -5 -5 -5 -5 -5 -5 -6 -6 -6 -6 -6 -6 -5 -6 -5 -5 -5 -6 -6 -6 -6 -6 -6 -6 -6 -6
-7 -7 -7 -8 -7 -6 -6 -6 -6 -6 -6 -6 -6 -5 -5 -5 -5 -5 -5 -5 -6 -6 -5 -5 -5 -5 -5 -5 -5 -6 -6 -6 -5 -5 -5 -5 -5 -5 -5 -5 -5 -6 -6 -6 -6 -6 -6 -7 -6
-7 -8 -8 -8 -8 -8 -6 -6 -6 -6 -6 -7 -6 -6 -6 -5 -4 -5 -5 -5 -6 -5 -5 -5 -5 -5 -5 -5 -5 -6 -5 -5 -5 -5 -5 -5 -5 -6 -5 -5 -5 -6 -6 -6 -6 -6 -6 -7 -7
-8 -8 -8 -8 -8 -7 -6 -6 -5 -5 -5 -7 -7 -6 -6 -6 -5 -5 -5 -5 -5 -4 -4 -5 -5 -5 -5 -5 -5 -5 -5 -5 -5 -6 -6 -5 -5 -5 -5 -5 -6 -6 -6 -6 -6 -7 -7 -6 -7
-8 -8 -9 -8 -7 -4 -6 -5 -4 -5 -6 -7 -7 -7 -7 -6 -6 -5 -5 -5 -5 -4 -4 -4 -4 -5 -5 -5 -5 -5 -5 -5 -5 -5 -6 -6 -5 -5 -5 -6 -6 -6 -6 -6 -7 -7 -7 -7 -7
-9 -8 -8 -7 -7 -6 -6 -4 -3 -6 -6 -7 -8 -7 -7 -6 -6 -5 -5 -5 -5 -5 -5 -4 -4 -4 -5 -5 -5 -5 -5 -5 -5 -5 -6 -6 -5 -5 -6 -6 -6 -6 -6 -6 -7 -7 -7 -7 -7
-10 -9 -8 -9 -8 -7 -6 -5 -4 -6 -6 -7 -8 -7 -7 -6 -6 -5 -5 -5 -5 -5 -5 -5 -4 -4 -5 -5 -5 -5 -5 -5 -5 -6 -6 -6 -5 -5 -6 -6 -6 -6 -6 -6 -7 -7 -7 -7 -8
-10 -10 -10 -9 -8 -7 -6 -4 -3 -5 -6 -7 -8 -7 -7 -7 -6 -5 -4 -5 -5 -5 -5 -5 -5 -5 -5 -5 -5 -5 -5 -5 -5 -5 -6 -6 -5 -5 -5 -6 -6 -6 -6 -7 -7 -7 -7 -8 -8
-12 -11 -10 -9 -8 -7 -7 -4 -4 -5 -7 -7 -8 -8 -7 -7 -7 -6 -6 -5 -5 -5 -5 -5 -5 -5 -5 -5 -5 -5 -5 -5 -5 -5 -5 -5 -5 -5 -5 -5 -5 -6 -6 -7 -7 -7 -7 -7 -8
-13 -12 -11 -10 -9 -7 -7 -5 -5 -5 -7 -7 -8 -7 -7 -8 -8 -7 -6 -6 -5 -5 -5 -5 -5 -5 -5 -4 -4 -5 -5 -5 -4 -5 -5 -5 -5 -5 -5 -5 -5 -6 -6 -6 -7 -7 -7 -7 -7
Height
5886 5886 5886 5885 5890 5889 5888 5887 5889 5891 5892 5891 5892 5893 5893 5896 5898 5901 5899 5899 5900 5901 5904 5905 5907 5906 5906 5908 5907 5908 5909 5909 5910 5910 5910 5911 5911 5910 5910 5910 5909 5908 5908 5907 5907 5908 5909 5909 5909
5886 5886 5887 5887 5890 5888 5890 5889 5889 5891 5894 5893 5895 5895 5896 5898 5899 5899 5899 5900 5902 5903 5904 5906 5908 5909 5909 5910 5910 5911 5912 5912 5913 5913 5914 5913 5913 5911 5912 5911 5910 5909 5907 5906 5907 5908 5909 5910 5910
5886 5886 5887 5881 5888 5889 5890 5891 5891 5892 5895 5895 5896 5897 5897 5899 5900 5900 5900 5901 5903 5904 5906 5907 5910 5911 5911 5912 5912 5913 5914 5915 5916 5916 5915 5915 5914 5913 5913 5913 5911 5909 5907 5906 5906 5907 5909 5911 5912
5886 5887 5887 5888 5887 5888 5890 5892 5893 5895 5895 5896 5897 5898 5899 5900 5901 5901 5901 5902 5904 5905 5907 5909 5910 5912 5912 5913 5915 5916 5917 5918 5918 5918 5917 5917 5916 5915 5915 5914 5912 5911 5909 5907 5906 5907 5910 5912 5914
5886 5887 5886 5885 5884 5887 5890 5892 5895 5896 5897 5898 5898 5899 5900 5901 5901 5902 5902 5903 5904 5907 5909 5910 5912 5914 5915 5916 5917 5918 5918 5918 5919 5919 5918 5918 5918 5918 5917 5916 5915 5913 5911 5909 5909 5910 5913 5915 5916
5886 5887 5886 5886 5885 5887 5890 5891 5894 5896 5898 5898 5899 5901 5902 5902 5902 5903 5904 5904 5906 5907 5910 5912 5914 5916 5917 5918 5918 5919 5919 5920 5920 5921 5920 5920 5921 5920 5920 5919 5918 5917 5916 5914 5913 5914 5915 5917 5917
5884 5885 5886 5888 5888 5888 5890 5892 5893 5896 5898 5900 5900 5902 5903 5903 5903 5903 5904 5906 5907 5909 5911 5913 5915 5917 5917 5919 5919 5920 5921 5922 5923 5923 5923 5923 5922 5923 5922 5922 5921 5920 5919 5918 5918 5917 5918 5917 5919
5883 5885 5885 5888 5888 5890 5891 5893 5895 5895 5898 5899 5900 5901 5902 5902 5901 5903 5904 5907 5909 5910 5912 5914 5915 5917 5918 5919 5920 5921 5922 5923 5925 5925 5925 5925 5924 5924 5924 5924 5923 5922 5921 5921 5922 5921 5920 5922 5922
5882 5884 5886 5889 5889 5891 5891 5892 5896 5897 5898 5899 5900 5901 5902 5902 5901 5903 5905 5907 5910 5912 5913 5915 5916 5918 5920 5920 5922 5923 5924 5925 5926 5927 5927 5927 5926 5926 5925 5925 5924 5923 5924 5923 5924 5924 5925 5926 5925
5882 5883 5885 5888 5889 5891 5891 5893 5896 5897 5898 5899 5900 5901 5901 5902 5902 5902 5905 5907 5910 5912 5914 5916 5918 5919 5921 5922 5924 5925 5926 5926 5928 5929 5929 5929 5928 5927 5926 5926 5925 5925 5925 5924 5924 5926 5926 5926 5926
5880 5882 5883 5885 5888 5890 5892 5893 5894 5895 5897 5898 5900 5901 5900 5902 5903 5903 5905 5906 5909 5913 5915 5917 5919 5921 5922 5924 5925 5927 5928 5929 5931 5931 5931 5931 5931 5929 5928 5927 5927 5926 5926 5925 5926 5928 5928 5927 5928
5878 5878 5881 5884 5887 5888 5890 5892 5893 5894 5896 5897 5898 5900 5899 5900 5902 5903 5905 5908 5910 5912 5916 5918 5920 5922 5923 5925 5928 5929 5931 5932 5933 5934 5933 5933 5932 5931 5930 5928 5928 5927 5928 5928 5928 5929 5930 5930 5930
5874 5875 5879 5882 5885 5886 5888 5891 5892 5893 5894 5896 5898 5898 5899 5900 5902 5904 5905 5908 5911 5913 5916 5918 5921 5923 5925 5927 5929 5931 5933 5934 5934 5935 5935 5935 5935 5933 5932 5931 5932 5929 5928 5928 5928 5930 5930 5930 5932
5870 5871 5875 5880 5883 5885 5887 5889 5891 5892 5892 5893 5896 5898 5899 5900 5901 5903 5904 5907 5910 5913 5916 5918 5921 5924 5926 5929 5930 5932 5934 5935 5936 5937 5936 5937 5936 5935 5935 5933 5934 5932 5931 5930 5929 5930 5931 5931 5933
5864 5868 5872 5877 5880 5883 5885 5887 5889 5891 5891 5892 5894 5896 5898 5901 5901 5902 5902 5906 5909 5911 5915 5918 5922 5925 5927 5930 5932 5933 5935 5936 5938 5939 5938 5939 5938 5937 5937 5936 5936 5935 5934 5933 5933 5933 5933 5934 5935
5861 5864 5870 5874 5876 5880 5884 5885 5888 5889 5889 5889 5892 5894 5896 5899 5900 5903 5904 5905 5908 5912 5914 5917 5921 5925 5928 5931 5933 5934 5936 5938 5939 5941 5941 5940 5940 5940 5940 5939 5939 5939 5937 5936 5937 5936 5936 5937 5937
5854 5862 5869 5871 5875 5876 5881 5882 5886 5887 5888 5888 5891 5892 5894 5897 5900 5902 5904 5906 5907 5910 5914 5917 5921 5925 5928 5932 5934 5935 5937 5939 5940 5942 5943 5943 5942 5942 5943 5943 5943 5943 5941 5940 5940 5939 5939 5939 5940
5856 5860 5863 5868 5872 5873 5876 5878 5882 5885 5885 5886 5889 5891 5893 5895 5897 5900 5903 5905 5907 5910 5913 5916 5919 5923 5928 5932 5935 5937 5938 5940 5941 5943 5945 5945 5944 5944 5945 5945 5946 5945 5944 5944 5944 5943 5943 5943 5943
5846 5850 5854 5860 5865 5868 5871 5873 5878 5880 5882 5885 5886 5888 5889 5893 5894 5896 5900 5903 5906 5909 5913 5917 5920 5923 5927 5931 5935 5937 5938 5940 5942 5944 5945 5946 5946 5946 5946 5947 5948 5947 5947 5947 5947 5947 5946 5946 5946
5837 5842 5848 5853 5858 5862 5866 5870 5872 5876 5878 5879 5882 5884 5886 5891 5892 5896 5899 5902 5906 5908 5911 5916 5920 5923 5925 5928 5932 5936 5938 5941 5943 5945 5946 5948 5948 5947 5947 5948 5948 5948 5949 5950 5950 5949 5948 5949 5949
5832 5837 5843 5847 5849 5856 5859 5860 5866 5872 5875 5878 5880 5882 5884 5887 5888 5891 5896 5900 5903 5907 5911 5914 5918 5922 5924 5926 5930 5934 5939 5941 5942 5944 5945 5948 5949 5948 5948 5949 5950 5950 5951 5951 5952 5951 5951 5951 5951
5824 5831 5833 5838 5840 5846 5851 5855 5860 5865 5871 5874 5879 5882 5883 5884 5886 5888 5892 5895 5901 5905 5907 5911 5915 5919 5923 5925 5930 5933 5936 5939 5941 5943 5944 5947 5948 5949 5949 5950 5951 5952 5952 5953 5953 5953 5953 5952 5952
5821 5821 5825 5829 5830 5836 5840 5846 5855 5858 5862 5870 5878 5880 5881 5882 5884 5884 5887 5893 5896 5900 5905 5908 5912 5916 5920 5925 5928 5931 5934 5939 5942 5943 5944 5946 5947 5948 5949 5951 5951 5952 5953 5953 5955 5954 5954 5954 5954
5808 5810 5814 5816 5821 5816 5831 5836 5846 5851 5859 5867 5871 5875 5877 5878 5880 5882 5883 5886 5891 5894 5899 5904 5909 5913 5918 5923 5927 5930 5933 5937 5940 5942 5944 5946 5948 5948 5949 5951 5951 5952 5953 5954 5955 5955 5954 5955 5955
5793 5798 5803 5806 5805 5811 5827 5825 5842 5847 5854 5861 5865 5870 5873 5874 5877 5879 5881 5885 5889 5893 5898 5902 5907 5911 5916 5921 5925 5929 5933 5936 5938 5941 5944 5946 5948 5949 5949 5950 5952 5953 5954 5955 5955 5956 5957 5956 5956
5783 5789 5795 5798 5800 5811 5818 5812 5833 5844 5848 5853 5858 5862 5865 5870 5873 5876 5877 5880 5884 5889 5894 5900 5904 5909 5913 5918 5923 5927 5931 5934 5936 5940 5943 5945 5947 5948 5949 5950 5952 5953 5954 5956 5955 5956 5957 5958 5957
5772 5775 5791 5787 5793 5804 5803 5814 5832 5831 5837 5845 5852 5856 5863 5867 5870 5873 5875 5877 5881 5883 5889 5896 5901 5905 5910 5915 5919 5924 5929 5932 5935 5938 5941 5943 5946 5946 5948 5949 5951 5953 5954 5955 5955 5956 5958 5959 5958
5761 5769 5770 5775 5781 5789 5792 5809 5821 5828 5835 5841 5845 5852 5858 5863 5866 5869 5871 5874 5876 5880 5884 5888 5894 5900 5905 5910 5915 5920 5925 5928 5932 5936 5939 5941 5944 5946 5946 5947 5948 5950 5952 5954 5955 5955 5957 5958 5959
5747 5750 5758 5767 5773 5780 5786 5803 5813 5824 5832 5835 5841 5847 5851 5856 5863 5866 5868 5870 5872 5875 5879 5884 5888 5894 5900 5904 5909 5915 5921 5925 5929 5933 5936 5939 5941 5944 5945 5946 5946 5948 5950 5951 5953 5954 5955 5956 5957
5731 5739 5744 5751 5763 5770 5775 5794 5807 5819 5824 5829 5834 5840 5844 5851 5857 5861 5864 5865 5869 5872 5876 5881 5885 5891 5895 5900 5905 5910 5915 5920 5925 5929 5932 5936 5938 5941 5943 5944 5944 5945 5947 5949 5951 5953 5954 5955 5956
Wind_Speed
2 4 7 10 10 7 6 7 16 12 12 12 11 15 17 15 13 12 12 12 10 10 11 12 10 11 12 13 15 15 15 15 15 14 13 12 11 11 10 9 8 6 4 3 4 6 7 9 10
1 1 4 7 7 3 3 5 17 14 10 12 12 14 14 13 11 11 12 11 9 10 12 13 11 11 13 14 15 14 14 14 13 11 11 10 10 9 10 9 8 8 5 3 4 6 8 8 9
2 2 1 1 1 4 3 9 17 16 10 10 10 11 11 11 8 9 10 12 9 10 12 14 12 12 13 14 14 14 13 12 12 11 11 10 11 13 11 11 11 11 8 5 3 7 9 9 9
3 3 3 2 5 5 6 12 10 10 12 10 10 10 11 7 7 9 11 12 11 11 12 13 13 12 13 14 14 14 15 14 12 12 13 14 15 15 15 15 17 15 14 9 7 12 12 11 11
4 5 5 2 6 9 16 13 11 12 12 11 9 9 8 8 10 8 9 11 13 13 13 13 14 13 14 16 16 16 15 14 13 14 15 16 18 19 19 20 19 19 18 18 17 17 14 14 14
5 5 6 6 11 12 16 16 12 8 10 9 8 8 11 12 10 8 8 11 13 15 15 14 16 15 16 15 16 16 14 14 15 16 17 18 19 18 18 18 20 20 20 20 19 17 16 14 15
5 9 6 11 13 16 13 13 11 9 7 6 5 9 13 13 10 8 10 11 13 14 16 16 17 15 16 15 16 15 15 16 16 16 16 15 15 15 14 15 16 17 19 18 18 16 15 14 14
8 7 11 15 12 14 11 13 8 11 9 8 7 10 14 15 13 9 10 12 14 14 15 16 17 15 16 15 14 15 16 17 16 16 15 13 11 12 11 12 12 14 16 15 15 15 13 12 12
8 11 15 9 10 13 14 11 12 7 7 7 9 10 11 14 15 13 12 13 14 13 14 15 15 15 16 15 15 16 16 17 17 16 13 11 10 8 7 9 12 12 13 12 12 10 13 12 11
12 14 14 6 8 13 13 11 7 5 6 7 11 13 15 12 14 16 15 17 15 14 15 15 15 15 15 16 16 17 17 17 17 14 11 11 12 14 11 15 14 12 10 9 9 8 9 10 9
17 18 15 10 7 10 16 10 12 4 5 9 12 16 18 13 13 15 15 19 19 17 16 16 15 15 16 16 17 17 16 16 15 13 11 12 13 14 11 12 10 9 10 7 6 8 8 7 7
22 22 21 17 12 13 14 9 10 8 6 10 12 14 17 19 16 17 15 17 19 19 17 17 16 15 16 17 17 16 15 14 13 13 11 12 14 13 10 11 11 11 10 8 6 4 6 5 5
24 24 21 19 17 16 15 11 13 9 10 13 13 16 17 17 17 15 17 19 19 20 19 18 18 18 17 18 18 17 16 14 14 16 13 11 14 14 12 11 12 10 10 8 8 6 4 5 6
28 28 24 20 18 18 14 13 12 14 12 17 14 17 17 17 19 17 20 20 21 20 20 19 19 19 19 19 19 19 17 14 14 15 12 11 11 12 12 10 11 11 11 9 9 8 8 9 8
32 28 25 21 21 19 16 11 12 15 15 15 17 18 18 17 19 21 25 25 22 23 23 21 20 21 20 19 18 19 16 15 15 14 12 12 13 12 12 11 13 11 15 14 13 13 14 13 11
34 31 26 23 21 20 16 15 18 17 15 17 18 18 18 20 21 19 20 26 24 23 24 22 22 21 21 19 19 17 16 16 18 14 12 13 13 13 13 13 14 13 17 17 14 14 13 14 14
37 32 25 25 22 21 17 20 20 19 17 16 15 18 20 20 19 18 20 24 26 26 25 25 25 23 20 17 16 15 16 17 18 14 12 13 15 15 15 15 17 17 18 20 18 17 15 16 15
29 26 28 25 23 22 19 26 25 26 21 18 17 15 16 21 23 21 21 25 26 26 27 27 28 26 21 16 14 14 15 16 16 13 12 12 15 17 16 17 18 19 20 20 19 19 17 17 15
30 31 29 28 27 26 21 29 29 32 23 19 19 20 20 21 24 26 25 27 28 28 27 27 27 26 23 18 18 17 17 16 16 13 11 11 14 16 16 15 18 19 21 20 19 18 18 15 14
33 35 33 30 30 30 30 31 33 29 27 25 23 22 21 17 16 22 24 28 28 28 29 27 28 26 25 23 22 18 17 17 17 14 12 11 13 15 13 13 13 16 17 17 16 17 17 14 13
33 34 33 32 35 33 38 39 35 31 29 29 22 21 18 19 18 20 24 27 30 30 29 29 28 28 26 24 21 18 16 17 17 15 13 11 11 12 12 12 11 12 13 13 13 14 15 15 13
37 31 35 35 38 38 40 46 43 33 29 32 22 18 19 18 18 17 25 29 32 32 32 32 32 30 28 24 22 21 22 23 22 17 14 12 11 11 10 10 11 9 9 10 11 12 13 13 13
35 35 35 38 43 42 44 46 44 40 37 33 26 21 20 18 20 20 23 28 34 36 34 34 35 33 29 24 24 23 21 19 18 16 13 12 11 10 9 8 9 8 8 9 10 11 10 12 14
42 42 40 44 46 56 47 48 44 41 34 30 32 29 24 25 19 21 25 32 34 38 39 37 36 35 31 28 27 24 21 20 19 17 14 12 11 11 9 8 8 8 8 8 10 10 9 12 13
52 50 46 47 54 55 46 51 40 41 37 33 28 27 29 28 22 21 22 24 29 32 36 37 36 34 31 30 29 24 22 23 21 18 14 14 12 11 10 8 8 9 8 7 10 9 10 13 13
53 54 52 53 54 51 50 55 40 39 38 41 34 33 33 30 23 22 21 24 27 29 35 34 34 33 33 31 30 25 22 22 20 16 15 16 15 13 12 9 8 7 8 8 8 8 9 12 12
58 58 51 55 55 51 56 52 36 46 44 44 38 37 32 27 24 20 21 22 26 30 32 34 34 34 33 32 31 27 24 21 19 18 17 16 16 15 13 12 9 7 6 8 8 8 7 8 9
57 58 57 58 60 58 60 48 41 46 42 43 42 42 35 33 31 29 25 23 25 28 34 38 38 37 35 34 33 30 26 23 21 19 18 17 18 16 14 12 10 9 7 6 6 8 7 6 5
60 60 63 60 61 61 60 49 43 40 41 48 41 38 36 37 32 29 24 23 26 30 35 37 40 40 39 38 36 33 28 25 22 20 19 19 19 17 14 12 10 8 8 7 4 4 5 6 5
60 62 64 66 64 64 63 53 43 35 41 49 43 41 41 37 33 28 25 25 29 30 33 34 38 39 40 38 36 34 32 28 25 24 21 20 20 17 15 14 12 10 9 9 7 5 4 4 5
Wind_Direction
96 70 100 96 107 125 137 180 123 119 109 98 105 134 127 123 116 107 93 89 99 112 112 104 107 105 106 113 107 102 101 95 89 82 76 75 75 76 72 66 62 65 75 94 107 105 104 101 100
122 134 140 159 123 134 46 117 124 115 114 100 127 126 124 124 114 115 102 94 96 111 115 111 112 113 114 116 112 108 107 106 101 100 92 88 80 80 76 63 56 52 41 34 90 112 108 101 99
193 219 205 278 166 195 171 126 133 125 123 104 106 136 133 122 118 119 113 110 106 109 118 119 117 118 115 115 115 115 117 114 108 102 97 86 85 76 68 54 45 39 32 25 110 135 127 107 98
191 203 209 197 265 213 156 136 124 135 147 124 108 126 132 140 140 139 122 119 116 115 121 120 118 115 119 122 126 126 120 115 110 100 94 90 87 84 79 62 54 55 48 45 103 135 129 116 105
210 186 193 300 185 181 150 136 146 147 148 132 124 128 137 148 142 141 124 130 125 125 125 128 126 128 133 128 127 121 115 108 103 101 97 94 94 86 75 69 68 63 58 66 93 114 118 116 110
225 175 156 143 118 177 156 149 148 162 153 142 128 141 146 142 136 132 125 130 130 133 135 139 137 138 131 127 122 114 108 107 105 102 102 101 94 87 78 72 72 67 66 72 91 105 114 115 113
244 197 125 147 134 141 151 161 161 170 169 152 151 157 142 138 127 118 123 134 137 141 143 148 140 138 126 123 117 113 110 110 106 105 105 100 97 90 80 74 73 73 72 72 90 100 108 116 116
173 161 165 169 160 176 165 177 204 181 191 181 180 170 151 138 124 111 122 138 144 145 149 149 141 135 125 122 120 116 115 112 109 108 103 98 92 90 87 81 81 81 79 78 78 92 101 103 109
196 164 134 161 200 190 200 195 200 199 194 186 170 157 152 145 126 117 122 135 140 144 149 151 143 137 127 128 127 122 119 114 110 108 102 92 78 79 71 85 89 84 76 84 87 82 87 97 106
180 170 175 175 189 197 207 206 201 189 218 206 186 168 150 161 135 131 135 140 141 146 152 155 149 141 135 133 129 125 123 117 111 108 95 93 74 79 78 96 92 81 87 81 90 89 86 89 92
199 206 218 222 227 216 201 239 220 212 248 218 198 181 159 156 142 131 143 150 148 149 157 158 155 149 143 137 133 129 124 117 113 111 102 83 79 76 80 79 87 90 88 90 80 84 83 88 90
206 214 216 223 222 212 218 239 242 270 254 222 207 191 174 157 160 139 138 149 151 154 159 158 158 155 148 142 138 133 126 120 112 117 106 88 73 63 73 85 82 82 81 81 90 74 88 90 90
220 226 223 223 227 224 214 237 244 249 231 212 215 192 182 178 157 146 146 155 154 156 160 161 161 161 153 149 142 137 131 125 121 114 109 90 73 61 77 85 80 70 48 38 69 88 123 131 107
216 222 221 218 222 226 231 233 228 233 219 206 202 199 185 175 160 156 147 159 161 160 162 166 165 164 158 153 149 141 136 131 125 116 102 85 79 74 89 88 77 67 62 56 60 86 129 133 119
217 218 213 213 218 221 228 219 221 225 214 199 187 197 184 172 176 180 161 162 166 166 167 167 169 170 163 163 156 149 140 138 130 118 101 87 84 90 95 92 79 66 72 74 78 93 101 111 99
226 227 219 214 219 224 219 216 218 216 201 185 182 184 182 181 190 186 174 165 165 170 168 168 169 170 168 166 160 148 139 136 131 121 111 97 92 97 102 95 88 85 80 85 87 91 95 100 95
230 232 226 225 224 232 218 213 219 204 179 164 181 185 186 186 193 191 180 173 169 174 171 173 169 172 172 174 164 151 142 145 136 127 113 108 105 102 102 94 90 86 81 80 85 96 100 100 99
240 239 236 228 226 229 215 210 212 204 199 191 188 194 201 186 186 194 191 180 177 176 178 179 175 173 172 173 167 157 153 153 144 135 119 110 109 102 103 95 91 89 87 84 84 86 92 96 97
228 228 228 225 220 219 207 201 210 204 205 207 195 201 201 197 194 192 190 188 183 178 181 180 179 173 168 173 171 168 163 166 152 145 129 118 113 112 100 101 101 92 88 89 88 91 89 92 94
222 222 225 225 221 214 207 202 208 212 207 199 199 200 205 193 191 210 193 192 187 181 182 179 179 176 175 176 178 175 169 170 159 161 141 130 119 114 114 104 101 96 89 89 89 95 98 100 99
224 222 222 225 228 215 208 199 205 217 222 224 222 214 224 208 202 200 200 194 192 188 185 184 183 183 179 181 180 174 169 174 172 173 150 143 133 122 118 111 102 97 95 96 93 101 105 109 113
221 222 221 220 226 225 217 213 214 214 220 224 221 207 197 201 206 203 203 193 191 194 191 188 185 186 188 187 181 178 177 181 178 174 164 157 152 132 118 105 101 106 110 104 95 100 113 113 117
216 222 219 217 224 226 222 219 211 214 216 222 225 207 211 218 214 204 191 200 192 198 195 193 190 189 191 190 186 188 185 181 180 179 175 170 164 145 135 129 123 116 109 97 101 102 112 114 118
214 219 218 218 217 225 217 223 209 212 214 210 214 223 229 217 209 207 199 196 200 199 197 197 195 193 192 186 192 192 192 182 183 186 185 184 174 153 143 149 148 131 118 118 105 104 106 112 115
218 215 217 221 222 224 219 224 198 211 207 203 210 214 206 210 209 209 206 202 205 206 205 199 199 197 193 191 194 196 189 188 187 191 192 193 187 167 152 141 134 129 133 128 118 117 115 112 116
219 220 221 223 225 225 225 226 198 203 204 200 206 204 210 212 208 207 204 205 202 202 207 206 201 201 193 195 197 200 197 197 192 193 195 196 193 184 164 147 128 119 126 135 133 127 123 116 117
220 221 220 224 228 227 232 227 205 199 203 195 199 203 205 208 212 213 209 207 211 200 197 205 204 200 199 197 200 201 201 202 198 197 202 202 200 195 177 161 153 139 122 124 144 139 146 128 121
222 221 221 222 224 225 230 224 212 205 199 193 198 200 205 219 222 227 220 209 207 209 198 198 201 201 198 201 202 202 201 203 205 202 205 208 211 204 190 179 175 173 152 140 137 146 156 151 149
220 221 223 223 226 228 231 221 215 204 199 198 197 204 207 207 215 219 224 221 209 208 204 201 200 201 203 202 202 202 203 201 203 205 211 213 210 207 200 200 199 196 185 176 166 164 158 156 177
224 221 222 223 224 227 231 220 218 200 197 202 199 199 198 201 206 213 217 228 220 209 207 207 205 204 203 204 206 206 203 203 203 205 211 213 208 210 211 211 213 210 204 202 195 195 209 195 205